ECMWFFLT2_700_rhum_180.txt.gz
RH
42 43 47 53 60 69 73 75 77 82 89 88 72 60 59 59 52 37 17 6 4 4 5 4 4 3 2 2 1 1 1 1 1 1 1 1 1 2 1 1 1 1 1 1 1 1 1 1 1 1 1 1
38 40 45 52 58 66 75 79 81 87 89 77 63 59 61 58 47 29 12 6 5 5 5 4 3 2 2 2 1 1 1 1 2 1 1 1 1 1 1 1 1 1 1 1 1 1 1 1 1 1 1 1
35 38 44 52 57 61 72 82 85 85 77 64 60 62 62 55 39 20 9 6 5 5 4 3 2 2 1 1 1 2 1 2 2 2 2 2 2 1 2 1 1 1 1 1 1 1 1 1 1 1 1 1
32 38 45 52 58 62 68 74 76 71 64 61 63 63 60 49 30 14 7 5 6 5 3 2 2 1 2 1 2 2 2 2 2 2 2 2 2 1 1 1 1 1 1 1 1 1 1 1 1 1 1 1
28 34 44 53 59 63 65 66 65 63 63 64 63 60 51 37 21 10 6 6 6 4 2 2 2 1 2 2 2 2 2 2 2 2 2 2 2 1 2 1 2 1 1 1 1 1 1 1 1 1 1 1
21 23 34 49 57 61 62 63 64 64 63 61 57 49 39 28 16 8 6 6 5 3 2 1 2 1 2 2 2 2 2 2 2 2 2 2 2 2 2 1 2 2 1 1 1 1 1 1 1 1 1 1
21 19 23 34 46 55 59 60 62 62 59 55 48 38 30 22 12 6 7 7 5 3 2 1 2 2 2 2 2 2 2 2 2 2 2 2 2 2 2 2 2 2 2 2 2 2 1 1 1 1 1 1
27 25 22 23 30 39 48 54 58 58 55 49 41 32 25 16 8 7 7 6 4 2 2 2 2 2 2 2 2 2 2 2 2 2 2 2 2 2 2 2 2 2 2 2 2 2 2 2 2 2 2 1
33 30 25 21 22 28 37 46 50 50 49 43 35 28 19 11 7 8 7 6 3 2 2 2 2 2 2 2 2 3 2 2 2 2 2 2 2 2 2 2 2 2 2 2 2 2 2 2 2 2 2 2
37 34 29 22 19 23 31 37 41 43 41 36 28 21 14 9 8 8 7 5 3 2 2 2 2 2 2 3 3 2 3 2 2 2 2 2 2 2 2 2 2 2 2 2 2 2 2 2 2 2 2 2
40 37 33 26 18 17 22 28 33 35 32 27 21 16 11 8 9 9 6 4 2 2 2 2 2 2 2 3 3 3 3 3 3 3 3 3 3 3 3 3 3 3 3 3 3 3 3 2 2 2 2 2
43 39 37 32 24 15 15 20 24 26 24 21 17 13 10 9 10 9 5 3 2 2 2 2 2 3 3 3 3 3 3 3 3 3 3 3 3 3 3 3 3 3 3 3 3 3 3 3 3 3 3 3
45 42 40 38 32 21 15 15 18 19 19 18 16 12 10 11 12 8 5 3 2 2 2 2 2 3 3 3 3 3 3 3 3 3 3 3 4 4 4 4 4 4 4 4 4 4 4 4 3 3 3 3
48 45 44 42 37 27 18 13 13 15 16 17 15 12 12 13 12 7 4 2 2 2 2 2 3 3 3 3 3 3 4 3 4 4 4 4 4 4 4 4 4 4 4 4 4 4 4 4 4 4 4 4
50 48 48 44 38 29 19 12 11 14 16 16 13 11 13 14 12 7 3 2 2 2 2 2 3 3 3 3 4 4 4 4 4 4 4 5 5 5 5 5 5 5 5 5 5 5 5 4 4 4 4 4
52 51 49 45 39 29 18 11 11 14 15 14 12 12 14 16 12 6 3 2 2 2 2 3 3 3 4 4 4 4 4 4 4 5 5 5 5 5 6 5 6 5 5 5 5 5 5 5 5 5 5 5
53 52 50 46 38 25 15 10 11 14 14 13 12 13 17 17 11 5 2 2 2 2 2 3 3 3 4 4 4 4 5 5 5 5 6 6 6 6 6 6 6 6 6 6 6 6 6 6 6 6 6 6
54 54 50 42 31 20 13 10 13 15 14 12 11 14 19 17 10 4 2 2 2 2 2 3 3 4 4 4 5 5 5 5 6 6 6 7 7 7 7 7 7 7 7 6 7 7 7 7 7 7 7 7
55 52 44 31 21 14 12 12 15 16 13 11 12 16 21 16 9 4 2 2 2 2 3 3 4 4 4 5 5 5 6 6 6 7 7 8 8 8 8 8 8 7 7 7 8 8 8 8 9 9 9 9
51 42 30 20 14 11 13 15 15 14 12 11 14 19 22 16 8 4 3 2 2 2 3 3 4 4 5 5 5 6 6 7 7 8 8 8 9 9 8 8 8 8 8 9 9 9 10 10 10 11 11 11
37 28 20 15 13 11 13 15 13 12 12 13 17 21 22 16 8 4 3 2 2 2 3 3 4 4 5 5 6 6 7 8 8 9 9 10 10 10 10 10 9 10 10 10 11 11 11 11 12 12 12 13
23 19 16 14 14 12 13 15 13 12 13 15 20 22 20 15 8 5 4 2 2 2 3 4 4 5 5 6 6 7 8 9 9 10 10 11 11 11 11 11 11 11 11 12 12 12 12 12 13 13 14 14
17 16 14 12 13 11 11 13 13 14 16 19 21 22 18 14 9 5 4 3 2 2 3 3 4 5 6 6 7 8 9 9 10 11 11 11 12 12 12 12 12 12 13 13 13 13 14 14 14 15 15 15
14 13 11 11 11 11 11 12 14 17 20 21 22 20 16 12 10 7 4 3 2 2 3 3 4 5 6 7 7 9 9 10 11 11 12 13 13 13 13 14 14 14 14 14 15 15 15 16 16 16 16 16
14 13 12 12 13 13 13 15 19 23 25 23 21 19 15 13 12 8 5 4 2 2 3 3 4 5 6 7 8 9 10 11 11 12 13 14 14 14 14 15 15 15 15 15 16 16 16 17 17 17 17 17
15 15 14 15 16 16 17 21 26 29 29 25 22 20 18 15 14 12 7 4 3 2 3 3 4 5 6 8 8 10 11 12 12 13 14 15 15 16 16 16 16 16 16 16 17 16 16 16 17 17 17 17
16 16 17 18 19 19 21 26 30 32 30 25 20 17 16 14 14 13 10 6 3 2 3 3 4 5 7 8 9 11 12 13 14 14 15 16 17 17 17 17 17 17 17 17 17 16 16 16 16 15 15 16
18 19 21 21 22 23 25 28 29 29 25 19 14 11 10 10 11 12 12 8 3 2 3 3 4 6 7 9 10 12 14 15 15 16 16 18 18 18 18 18 18 18 18 18 17 16 15 16 16 15 15 16
22 21 23 23 24 24 25 26 25 22 17 13 10 8 8 9 10 13 14 10 5 3 3 3 4 6 7 9 11 14 16 17 17 17 18 18 19 19 19 19 19 18 18 18 17 16 15 16 16 16 16 16
27 22 22 24 25 25 26 26 24 21 18 16 14 12 13 15 16 19 21 16 8 3 3 4 4 6 8 10 13 16 17 19 19 18 19 19 20 20 20 21 21 20 19 18 17 17 16 17 17 17 18 18
33 27 22 22 24 27 29 30 29 26 24 23 20 16 15 18 22 26 29 26 15 5 3 4 5 6 8 11 14 17 19 20 20 20 20 21 21 22 22 22 22 21 21 20 19 19 19 18 18 18 19 19

ECMWFFLT2_700_rhum_186.txt.gz
RH
65 63 61 59 57 55 54 52 50 48 44 42 40 39 39 41 47 54 58 55 47 48 53 53 54 51 44 32 18 7 4 4 4 4 4 4 3 3 3 2 2 2 2 1 1 1 1 1 1 1 1 1
66 63 61 60 58 56 54 52 49 46 43 39 36 36 38 43 50 55 54 50 50 53 54 55 57 51 39 28 18 8 5 4 4 4 4 3 3 2 2 2 2 2 1 1 1 1 1 1 1 1 2 1
67 65 62 61 58 55 53 51 48 44 41 37 34 35 37 42 52 61 60 54 55 57 57 59 59 50 34 23 16 9 5 5 4 4 3 3 2 2 2 2 2 1 1 1 2 1 2 2 2 2 1 1
69 68 65 63 59 56 54 50 46 41 35 32 32 35 37 44 56 68 70 63 61 60 61 62 58 46 31 21 15 8 5 5 5 4 3 3 2 2 2 1 2 2 2 2 2 2 2 2 2 2 1 1
72 70 67 64 60 56 53 49 44 37 29 26 27 31 36 44 54 62 67 68 67 64 62 61 54 41 28 21 15 8 6 5 5 4 3 2 2 2 1 2 2 2 2 2 2 2 2 2 2 1 1 1
72 68 64 60 58 55 52 47 39 33 27 22 20 23 29 36 44 52 58 63 65 64 64 60 48 35 27 22 14 8 6 5 5 3 2 2 2 2 2 2 2 2 2 2 2 2 2 2 2 2 1 1
68 64 60 58 57 54 50 42 33 29 27 25 21 21 24 29 38 48 56 63 67 69 66 56 43 34 28 21 13 8 6 6 4 3 2 2 2 2 2 2 2 2 2 2 2 2 2 2 2 2 1 2
64 62 61 59 57 53 46 39 32 28 28 29 29 27 26 28 35 41 50 60 66 66 59 49 40 34 27 19 12 8 7 6 5 3 2 2 2 2 2 2 2 2 2 2 2 2 2 2 2 2 2 2
63 63 60 58 55 50 44 40 37 34 33 33 34 32 29 29 33 37 44 52 55 54 49 43 38 32 24 16 11 8 7 6 4 3 2 2 2 2 2 2 2 2 2 2 2 2 2 2 2 2 2 2
61 61 60 58 54 49 45 42 40 40 40 38 36 35 33 32 36 40 44 48 49 49 47 43 36 29 21 14 11 8 7 6 4 3 2 2 2 2 2 2 2 2 2 2 2 2 2 2 2 2 2 2
54 58 59 58 55 51 48 45 44 44 44 43 40 37 37 39 43 46 46 46 47 49 47 42 33 25 19 14 11 9 8 6 4 3 2 2 2 2 2 2 3 3 2 3 2 2 2 2 2 2 2 2
47 56 59 58 57 55 52 50 48 48 47 46 44 41 40 42 46 49 49 49 49 47 43 37 30 23 18 14 12 10 8 6 4 2 2 2 2 2 2 3 3 3 3 3 2 2 2 2 2 2 2 2
45 57 62 59 59 60 57 55 52 51 51 49 47 45 45 47 50 51 51 52 50 44 38 32 28 22 18 15 13 11 8 6 4 2 2 2 2 2 2 3 3 3 3 3 3 3 3 3 3 3 3 3
42 57 67 65 64 66 63 59 57 55 53 52 50 48 48 50 52 52 50 50 48 44 38 31 28 24 19 16 14 12 9 6 4 2 2 2 2 2 3 3 3 3 3 3 3 3 3 3 3 3 3 3
37 53 70 73 71 71 69 65 62 58 56 55 52 50 50 51 52 52 50 50 48 45 40 33 31 28 22 18 16 14 10 6 4 2 2 2 2 3 3 3 3 3 3 3 3 3 3 3 4 4 4 4
35 50 71 81 80 79 75 71 67 61 59 58 55 52 51 53 54 53 52 52 50 47 42 37 35 31 25 21 18 16 12 7 3 2 2 2 2 3 3 3 3 3 3 3 3 4 4 4 4 4 4 4
35 47 67 83 89 88 83 78 72 66 62 60 59 56 55 55 56 55 55 54 52 48 45 41 39 35 27 22 21 18 13 7 3 2 2 2 2 3 3 3 3 4 4 4 4 4 4 4 5 5 5 5
36 47 66 86 93 94 91 84 77 71 66 64 62 60 58 58 59 58 57 55 53 51 50 46 44 40 31 24 23 21 15 8 4 2 2 2 2 3 3 3 4 4 4 4 5 5 5 5 5 5 5 5
39 52 70 87 93 95 95 91 84 76 71 68 66 63 61 60 61 60 58 55 54 55 54 51 48 44 35 27 25 23 18 10 5 3 2 2 2 3 3 4 4 4 5 5 5 5 5 5 6 6 6 6
38 53 71 87 93 95 97 95 89 81 75 72 70 66 63 62 62 61 58 55 55 57 58 57 54 49 40 31 28 26 22 14 6 3 2 2 2 3 3 4 4 5 5 5 6 6 6 6 6 7 7 7
34 49 66 81 89 92 94 93 89 82 77 74 72 68 65 64 63 61 58 56 56 59 63 63 60 55 45 34 30 29 26 18 9 4 2 2 2 3 3 4 5 5 6 6 6 7 7 7 7 8 8 8
32 45 58 69 77 81 81 82 81 79 76 74 72 69 66 66 65 63 61 59 59 61 66 67 64 59 48 38 34 33 30 21 12 5 3 2 2 3 4 4 5 6 6 6 7 7 7 8 8 9 9 9
26 34 44 54 62 69 72 75 75 75 74 72 71 69 69 69 68 68 66 64 62 63 68 70 68 61 49 41 38 37 33 25 15 7 3 2 3 3 3 4 5 6 7 7 7 8 8 9 10 10 10 10
20 22 27 32 38 45 54 62 68 71 72 72 72 72 73 74 74 73 70 67 66 67 70 72 69 60 49 43 42 41 39 31 19 9 4 3 3 3 4 4 6 7 8 8 9 9 10 10 11 11 11 11
19 20 21 21 23 25 29 36 44 52 58 61 63 65 68 72 74 72 70 69 69 70 71 72 68 57 48 46 46 46 41 32 21 12 6 4 3 3 4 5 6 8 9 9 10 10 11 11 12 12 13 12
19 20 20 21 22 22 23 23 25 29 35 39 42 45 50 57 63 66 66 66 67 70 71 70 65 55 49 49 49 49 43 34 25 16 8 5 4 3 4 5 7 9 10 10 10 12 12 12 13 13 14 14
19 19 19 20 22 23 24 25 24 24 25 27 28 31 36 45 55 60 62 65 68 72 73 70 64 56 52 52 52 52 49 41 31 21 11 6 4 4 4 5 7 9 10 11 12 13 13 13 14 14 14 14
21 21 21 21 22 24 26 28 29 29 28 28 28 30 38 49 59 64 67 71 74 76 76 72 65 58 56 56 55 54 54 49 41 29 17 9 5 5 5 5 7 9 11 12 13 15 14 14 15 14 13 14
18 21 23 24 24 26 28 30 33 34 34 33 32 33 41 52 60 65 69 74 77 78 77 72 66 61 59 58 57 56 56 56 49 37 24 13 8 7 6 6 7 10 11 13 15 16 16 16 16 14 14 15
11 13 17 22 25 28 30 32 34 37 38 38 36 35 39 46 52 57 62 67 72 75 75 71 66 63 61 60 59 58 57 58 56 49 36 22 13 9 7 7 8 9 11 14 16 18 17 18 18 17 17 17
9 9 10 13 17 22 27 31 35 39 41 42 41 40 40 43 47 51 56 61 66 71 73 71 68 65 64 63 62 61 59 59 60 58 50 35 21 12 9 9 9 9 12 14 15 18 20 21 21 21 20 20

ECMWFFLT2_700_rhum_192.txt.gz
RH
41 45 52 56 56 54 53 54 56 58 59 59 60 58 54 52 53 54 54 53 52 49 49 50 54 59 63 64 59 50 49 53 50 46 37 24 18 13 7 4 5 4 4 3 3 2 2 2 2 2 2 2
47 52 56 60 61 60 60 61 62 62 63 62 61 57 53 52 53 54 53 52 51 49 48 47 50 55 61 67 66 56 49 49 48 44 36 24 18 14 8 5 5 4 4 3 3 2 2 2 2 2 2 2
55 59 62 64 66 67 68 67 67 67 66 63 59 55 53 54 54 53 51 50 50 48 47 46 46 49 54 62 71 69 58 52 49 44 35 26 21 15 9 6 5 4 4 3 2 2 2 2 2 2 2 2
65 66 67 67 69 72 73 72 71 70 66 61 56 55 55 54 53 50 49 48 47 46 45 45 46 49 52 59 73 77 66 55 48 42 33 26 23 16 10 6 6 5 4 3 2 2 2 2 2 2 2 2
72 71 71 71 73 75 76 75 72 68 62 57 55 55 55 53 50 48 47 46 46 45 44 45 46 49 53 57 65 69 61 50 41 34 28 26 24 16 10 7 6 5 4 3 2 2 2 2 2 2 2 2
78 77 77 77 77 77 76 73 69 64 60 57 56 54 53 51 49 47 47 46 44 42 41 40 40 42 46 49 54 54 49 42 34 27 24 26 25 17 11 8 6 5 4 3 2 2 2 2 2 2 2 2
83 82 82 82 80 78 74 70 66 63 61 57 54 52 51 50 48 47 45 42 40 37 35 32 32 32 35 40 43 40 36 32 27 23 23 26 25 19 13 9 7 6 4 4 2 2 2 2 2 2 2 2
86 85 84 83 80 78 74 71 69 66 63 58 53 50 50 49 48 46 42 37 35 34 34 33 32 33 34 37 37 34 31 27 23 22 22 25 24 19 14 10 8 6 5 4 3 2 2 2 2 2 2 2
88 87 85 84 81 79 78 76 73 70 65 58 52 50 50 50 49 45 40 35 34 34 35 36 37 37 39 40 39 37 35 31 26 23 21 22 22 19 15 11 9 7 5 4 3 2 2 2 2 2 3 2
82 86 86 85 84 81 80 78 74 70 64 58 54 53 53 52 49 44 40 37 36 37 38 39 40 42 44 46 46 44 43 40 35 28 22 21 21 19 16 13 10 8 6 4 3 3 2 2 2 2 3 3
61 75 81 82 82 81 79 76 72 67 63 60 59 58 57 53 49 44 41 40 41 42 43 44 44 46 48 51 52 49 48 47 43 36 27 22 20 19 17 14 12 10 7 5 3 3 2 2 2 3 3 3
37 52 67 75 77 78 78 76 73 70 67 67 66 64 60 55 51 47 45 44 45 46 47 48 48 50 52 54 55 53 51 51 48 43 35 26 21 20 18 15 13 11 8 6 4 3 2 2 2 2 3 3
27 32 46 62 72 75 77 78 77 76 75 74 73 69 64 59 55 51 49 48 49 50 50 51 51 54 56 58 59 57 55 55 53 50 44 34 26 22 20 17 14 12 10 7 5 4 3 3 2 3 3 3
26 25 29 41 55 66 72 77 79 81 82 81 79 74 69 63 59 55 52 52 53 54 55 55 56 58 60 62 62 61 60 58 58 56 51 43 32 26 23 21 17 14 11 9 6 5 3 3 2 3 3 3
26 25 25 27 36 47 56 64 72 77 81 82 81 79 75 69 64 60 57 56 57 58 59 59 61 62 64 66 64 63 64 63 62 61 57 50 40 31 28 24 20 17 13 10 7 6 4 3 3 3 3 3
26 25 25 26 27 32 38 46 56 65 71 76 82 84 82 77 71 67 64 62 61 62 63 63 65 65 66 67 65 65 66 67 67 65 61 56 46 36 33 29 24 20 16 13 9 6 5 3 3 3 3 3
26 26 25 26 27 28 31 34 42 52 59 66 76 83 87 85 80 74 71 68 66 67 68 68 67 67 67 66 65 67 68 70 70 68 66 62 53 44 39 36 30 24 20 15 11 8 6 4 3 3 3 3
24 25 25 25 26 27 28 31 36 43 49 55 64 75 85 90 89 84 79 75 72 72 73 74 72 71 69 66 66 68 69 71 72 71 71 67 61 53 47 44 37 29 24 19 14 10 7 5 3 3 3 3
22 22 22 23 24 24 26 28 33 38 45 50 55 63 77 89 94 91 87 84 80 79 78 78 78 76 72 69 68 70 70 72 73 74 74 71 67 60 54 51 45 35 28 23 18 13 9 6 4 3 3 3
24 23 21 21 21 21 23 26 31 37 45 53 56 58 70 87 98 96 92 93 89 84 82 81 82 80 76 73 71 71 72 73 74 75 76 74 71 66 61 57 52 42 34 26 20 15 11 7 5 4 3 3
28 26 24 23 22 22 24 26 31 36 44 55 61 62 66 77 91 96 93 95 96 91 85 83 84 82 78 76 75 74 74 75 76 77 78 77 73 70 68 64 58 49 40 31 24 18 13 9 6 4 3 3
27 26 25 24 24 25 26 28 32 35 41 51 58 63 65 69 81 93 93 94 98 97 92 89 88 87 83 81 79 78 77 77 78 78 79 79 75 71 69 66 60 53 44 35 28 23 16 10 8 5 4 3
26 25 24 23 24 24 26 29 31 35 41 48 57 64 70 73 77 86 95 98 99 100 98 96 95 92 90 87 85 84 82 81 81 80 80 80 77 72 69 66 62 55 47 37 31 26 19 13 10 7 5 4
26 25 24 23 23 24 25 29 33 38 45 52 62 70 77 84 86 87 95 99 100 100 100 100 99 97 95 92 91 90 88 85 83 82 81 80 78 74 72 70 65 59 49 39 32 27 22 17 14 10 7 5
27 26 25 23 23 24 24 27 33 39 46 53 61 69 77 87 94 95 97 98 98 100 100 100 100 100 98 96 95 95 92 88 84 82 82 81 79 76 73 70 67 60 51 41 34 29 25 22 18 14 10 7
27 26 25 23 22 23 23 24 27 31 37 44 50 57 65 74 83 90 93 95 97 99 100 100 100 100 98 96 95 95 92 89 86 84 83 82 79 77 73 69 66 60 51 43 37 31 27 25 23 19 16 12
23 24 24 23 22 22 23 23 24 26 29 34 37 41 47 55 64 72 78 82 87 91 95 97 98 98 96 94 93 92 90 89 86 84 84 82 78 74 71 68 66 62 53 45 40 35 31 28 26 23 20 17
17 21 23 23 23 23 24 24 25 27 28 28 29 30 33 38 44 49 55 63 70 77 83 87 90 92 93 92 91 90 88 87 85 84 83 81 76 71 68 67 67 64 57 49 42 38 35 31 29 28 24 20
14 18 20 21 21 21 22 23 25 26 28 28 28 28 29 31 32 34 37 42 49 57 66 73 79 83 86 87 87 86 85 84 83 82 81 78 74 70 68 66 65 64 59 53 47 42 38 34 31 31 28 24
12 13 15 15 15 15 15 16 18 21 24 25 26 28 30 31 32 33 34 35 37 40 46 53 60 67 73 77 79 80 80 81 81 80 78 75 73 72 70 66 63 62 61 56 51 47 43 38 34 33 30 28
10 10 11 11 11 11 11 12 12 14 16 18 19 21 23 26 29 31 34 36 38 39 40 42 45 51 57 62 66 69 72 75 76 76 75 74 73 72 72 69 64 63 63 59 54 51 48 45 41 37 33 31

ECMWFFLT2_700_rhum_198.txt.gz
RH
34 32 32 33 33 33 34 36 42 44 44 49 55 60 62 64 69 74 77 77 75 74 75 71 61 57 55 56 57 56 55 52 49 46 42 36 31 29 26 21 21 23 23 19 15 11 7 4 3 3 3 3
35 32 33 34 36 38 39 40 45 49 51 53 58 62 65 67 71 73 74 74 74 73 73 69 61 56 55 56 57 56 54 51 49 45 41 34 29 26 25 20 17 17 18 17 14 10 7 5 4 3 3 3
34 34 36 37 40 44 46 47 48 53 58 59 60 63 65 66 68 70 70 72 73 72 71 66 60 57 56 57 57 55 53 50 48 44 39 32 26 23 23 20 15 11 11 14 14 11 8 5 4 3 3 2
36 39 43 46 49 53 56 56 56 59 65 67 66 66 66 67 67 69 70 71 72 70 67 63 59 58 58 57 55 53 51 49 47 42 36 30 25 23 22 21 17 12 9 11 13 11 9 7 5 4 3 2
38 43 49 54 58 62 65 66 65 66 69 73 73 71 70 71 70 71 71 71 71 68 65 61 59 58 58 56 53 51 50 48 45 40 34 28 26 25 23 21 18 14 11 10 11 12 10 8 6 4 3 3
40 45 51 58 63 67 70 72 72 72 72 74 76 76 75 75 75 74 73 72 70 67 64 60 58 58 56 54 52 50 48 47 43 37 32 27 27 27 26 23 19 16 14 12 11 11 11 9 7 5 4 3
44 48 52 59 65 70 73 76 77 77 76 77 78 78 79 79 78 76 74 72 70 65 61 58 57 56 54 52 50 49 48 45 40 35 31 29 29 29 29 26 23 19 17 15 13 12 11 10 8 6 4 3
46 49 53 57 64 71 76 79 81 80 80 80 80 79 80 80 79 78 75 72 68 63 59 57 56 55 53 51 50 49 47 43 39 36 34 33 32 32 31 29 27 25 21 18 15 13 11 11 9 7 5 4
40 44 48 53 58 66 73 79 83 85 84 83 83 82 81 80 79 76 73 69 65 62 59 59 58 56 54 53 53 51 48 44 41 40 39 39 38 36 34 33 32 30 27 23 19 15 12 11 10 9 7 5
31 34 39 44 50 57 65 73 79 83 85 85 85 84 81 78 76 73 70 66 64 62 61 61 60 58 56 56 56 53 50 47 43 43 44 43 42 40 38 37 35 34 33 30 26 21 16 13 11 9 8 7
28 29 31 36 41 48 55 62 69 75 78 81 83 84 81 75 73 72 69 66 65 64 64 64 62 60 57 56 56 53 51 48 44 44 45 46 45 43 41 40 38 37 37 36 33 28 23 18 13 11 9 8
29 28 29 31 34 40 45 51 59 65 70 76 80 83 83 78 74 73 72 70 70 69 68 66 64 61 58 56 54 53 50 48 45 45 47 48 47 46 45 42 41 40 40 39 37 35 31 26 20 14 11 9
31 30 29 30 30 33 38 44 50 56 65 74 80 84 85 83 80 77 76 74 74 74 71 69 66 63 59 56 54 53 51 49 47 48 49 50 50 48 47 45 43 42 42 42 41 40 38 34 29 23 17 12
31 31 31 30 30 30 33 37 41 46 54 65 75 82 84 84 82 80 79 78 77 75 72 70 67 64 61 59 57 55 52 50 49 51 52 52 52 50 49 48 46 45 45 45 44 44 43 41 38 33 26 19
32 31 31 31 31 31 31 33 36 39 44 52 62 73 80 82 81 80 79 78 77 75 72 70 68 65 63 63 61 59 56 53 52 52 54 54 53 52 52 52 51 50 50 49 48 48 47 46 44 40 35 27
32 31 31 31 31 32 32 33 34 35 37 41 48 57 67 74 78 78 76 75 75 74 72 70 69 69 68 68 66 63 60 57 55 55 55 55 55 55 56 56 56 55 54 53 53 51 51 50 49 46 43 36
31 31 31 32 33 35 35 35 35 34 34 34 36 40 47 56 64 69 69 68 70 71 70 69 70 71 71 71 70 68 65 62 60 59 58 58 58 58 59 60 60 59 59 58 56 55 54 53 53 51 49 45
32 32 32 33 34 36 36 35 35 34 33 32 31 31 32 35 40 45 46 47 51 56 59 62 65 67 70 73 74 72 69 66 64 62 61 60 60 60 61 62 63 63 62 61 60 59 58 57 56 56 55 53
33 34 34 34 34 35 34 33 33 32 32 32 31 30 30 29 29 29 30 30 33 37 41 45 49 54 60 68 75 76 75 72 69 66 65 63 62 62 64 65 65 66 65 64 62 61 61 61 60 60 59 58
34 33 33 33 32 32 32 31 30 30 30 29 29 28 28 27 27 27 27 27 28 30 33 36 40 43 47 55 66 74 78 77 75 73 70 69 68 66 66 68 68 68 68 66 65 64 64 64 64 64 64 63
32 31 31 31 32 32 33 33 33 33 32 31 29 28 27 26 25 25 25 26 27 28 30 32 36 40 42 46 55 66 77 83 84 83 81 78 75 73 71 71 71 71 70 70 69 68 67 67 67 67 67 67
33 33 33 33 33 34 34 34 34 33 32 32 31 30 29 28 27 27 27 27 27 29 31 33 37 42 46 49 53 60 68 78 85 85 88 89 85 81 80 78 77 75 74 73 71 70 70 70 69 68 68 68
34 33 33 32 30 29 28 28 27 27 27 27 26 26 26 26 27 28 29 30 32 34 38 41 46 52 59 62 62 62 61 68 77 77 84 96 96 89 86 85 84 83 80 76 73 73 73 72 71 70 70 70
35 34 34 33 32 32 31 30 29 28 27 26 25 24 23 23 25 26 28 31 34 39 43 48 53 60 69 76 75 73 71 73 77 77 81 93 99 98 94 90 90 90 87 82 79 78 77 76 76 75 74 74
38 38 38 37 38 37 36 35 34 32 30 29 28 27 26 26 27 28 30 31 35 39 44 50 56 62 71 82 87 85 83 82 83 85 86 86 89 93 96 94 94 94 93 90 87 84 82 80 79 77 78 78
40 40 39 40 40 40 39 37 36 35 33 32 31 31 31 30 31 32 33 35 37 40 44 49 54 60 68 80 91 93 91 90 91 92 90 87 85 86 89 91 92 92 91 92 91 89 88 86 83 81 81 81
42 42 41 42 42 41 40 38 37 36 36 35 34 35 34 34 34 35 37 38 40 42 44 48 52 58 65 75 86 93 94 94 94 94 93 93 94 93 94 95 93 93 92 93 93 92 91 89 88 88 87 86
46 45 44 44 43 43 42 40 39 38 38 38 38 38 37 36 36 38 40 40 41 42 43 46 48 52 58 65 74 82 89 92 93 95 96 97 97 94 96 98 97 97 98 97 96 96 94 93 92 93 92 88
52 50 49 47 46 45 44 42 41 40 39 39 39 38 36 36 39 41 42 42 42 42 42 43 44 45 48 51 56 63 71 79 83 87 91 95 95 94 95 97 98 98 99 98 97 96 95 95 94 92 89 85
56 55 53 51 49 47 45 44 43 42 41 38 35 33 34 37 42 44 43 42 41 41 41 40 40 40 41 42 45 47 50 55 59 64 70 75 80 82 83 85 89 92 93 92 93 93 92 92 90 87 84 82
58 57 55 53 52 49 47 46 45 42 37 32 29 30 34 38 40 41 39 38 37 36 35 34 33 33 34 35 36 38 40 41 42 44 47 50 54 57 59 61 67 73 75 76 79 79 80 80 79 78 76 75

ECMWFFLT2_700_rhum_204.txt.gz
RH
39 38 38 37 38 40 41 40 37 36 35 35 35 36 37 38 39 37 38 45 48 46 47 53 55 55 60 63 62 60 58 57 55 53 52 51 52 52 53 54 55 56 56 56 53 45 33 26 23 18 15 14
46 47 46 44 43 44 47 48 45 41 38 36 34 34 38 40 41 41 39 41 43 43 44 49 52 52 56 60 60 59 58 57 55 54 54 53 53 53 54 55 56 57 57 57 55 48 37 28 25 22 19 16
50 51 51 50 48 48 50 52 49 45 43 40 37 35 35 36 37 38 39 40 41 42 44 47 50 51 54 57 58 59 59 57 57 57 56 55 55 54 55 56 56 58 58 58 57 51 42 32 28 26 23 20
51 49 47 47 49 49 49 49 46 44 43 44 45 45 45 42 39 37 37 39 42 46 49 52 52 53 55 56 57 59 60 60 60 60 58 57 56 56 56 56 56 56 58 58 58 54 47 38 32 29 26 24
45 41 39 41 44 45 43 41 40 38 37 38 41 45 49 48 43 39 39 41 47 52 56 58 56 55 57 58 58 60 62 63 63 62 59 59 57 57 57 56 57 56 57 58 58 55 49 42 36 32 30 27
34 34 33 35 37 38 36 35 34 34 33 34 35 37 40 41 41 43 47 50 54 58 61 61 60 59 59 60 62 64 65 65 64 63 61 61 58 58 58 57 57 56 57 59 58 55 50 44 39 35 33 31
33 33 32 33 35 35 34 34 33 33 33 33 35 37 36 37 43 48 53 57 59 62 64 66 65 63 64 66 68 69 69 69 67 66 64 62 60 59 58 57 57 57 57 58 57 55 51 45 40 38 36 34
40 38 35 35 35 35 34 33 34 34 34 34 35 37 37 39 44 46 52 61 65 67 68 70 70 69 70 71 72 73 73 73 70 69 67 64 62 60 59 58 57 58 58 57 57 55 52 46 42 40 38 36
39 37 35 35 34 32 31 32 32 32 33 33 33 35 35 38 41 44 50 58 64 68 72 73 75 76 76 78 79 78 77 76 74 72 70 67 64 63 61 60 59 60 59 58 57 55 52 47 43 41 39 38
33 32 31 31 30 29 28 28 29 28 29 29 30 29 29 31 34 38 44 52 60 65 68 72 78 81 82 85 85 82 81 79 77 74 72 70 67 65 63 63 62 61 60 59 57 55 52 48 44 43 42 41
31 30 31 31 30 30 29 29 29 28 28 28 28 27 26 28 30 32 35 43 54 60 63 72 81 86 86 87 86 83 81 80 78 75 73 71 68 67 67 66 65 62 61 59 58 56 52 49 46 45 44 43
34 33 35 36 34 32 33 33 33 32 32 32 31 30 29 29 30 31 33 37 48 57 63 72 80 84 86 86 86 83 80 79 78 75 74 73 72 71 70 69 67 65 63 61 59 57 55 52 50 48 47 46
35 36 37 38 37 35 36 36 36 36 36 36 36 35 34 32 32 31 33 39 46 52 58 66 72 76 81 83 84 83 80 80 79 77 76 76 76 75 74 72 70 69 66 64 61 59 58 56 53 51 50 49
37 37 39 40 39 39 39 39 40 39 38 39 38 38 37 35 34 32 32 38 44 50 58 65 68 73 80 82 84 83 81 81 81 80 80 81 81 79 77 74 72 70 67 66 64 62 61 59 57 55 54 53
39 39 40 41 41 41 42 42 42 42 41 41 40 39 38 36 35 34 33 36 42 50 62 69 73 78 81 80 83 85 86 88 89 86 86 86 84 82 80 76 74 72 70 68 66 66 64 62 61 59 57 56
40 41 42 43 43 44 44 44 44 44 43 42 41 39 38 36 35 35 35 35 38 43 52 60 65 69 70 70 78 83 81 80 79 77 78 84 85 85 84 81 79 77 75 73 71 70 69 67 65 64 62 60
42 43 44 45 45 45 45 45 45 44 43 42 40 39 36 35 35 35 36 36 37 38 40 43 45 51 58 60 61 60 55 52 51 51 55 67 73 76 83 88 87 86 84 81 78 76 74 72 69 67 66 64
44 45 46 46 46 46 46 45 45 43 42 40 39 37 36 35 35 35 36 36 36 35 34 34 34 38 44 44 40 40 41 40 38 37 38 44 49 54 67 80 85 90 93 91 87 82 78 76 73 72 70 68
46 47 47 47 47 47 46 45 43 41 40 38 37 36 36 36 36 35 35 34 33 33 33 33 33 33 35 35 35 39 42 41 39 38 39 40 40 42 49 58 66 78 88 92 92 89 85 80 76 73 70 69
47 47 47 47 47 46 45 43 41 40 38 37 36 36 36 36 35 33 32 33 33 34 35 34 34 34 34 34 35 40 42 45 46 46 49 49 45 46 48 49 54 62 70 78 87 91 93 93 88 81 76 72
48 48 48 48 47 46 44 42 39 38 36 36 36 36 35 34 33 33 33 34 34 33 31 30 29 28 29 29 30 33 36 43 48 48 56 62 59 60 61 59 59 59 59 68 79 84 86 89 90 92 92 90
49 49 49 48 47 46 43 41 38 37 36 36 37 36 36 35 34 34 34 33 31 31 30 30 30 28 28 27 26 27 28 34 39 41 48 55 56 57 57 59 60 56 56 67 81 87 86 79 74 75 85 95
50 49 49 49 47 45 41 39 38 37 38 38 38 37 36 35 34 34 34 34 34 36 37 36 35 34 32 30 29 28 28 29 31 33 35 39 43 45 48 55 55 52 56 70 83 93 98 90 78 69 72 84
50 49 49 47 45 42 40 39 39 39 39 38 38 37 36 35 35 36 36 37 39 40 40 40 38 38 37 35 32 31 30 30 30 32 33 35 38 42 50 54 50 51 60 68 73 83 94 96 90 83 80 85
47 48 47 45 43 41 41 40 40 40 39 38 37 36 36 36 36 37 38 39 40 41 41 41 40 40 39 37 35 34 33 32 32 32 33 34 35 39 49 51 49 57 63 63 62 70 87 97 97 93 91 91
47 48 47 45 44 43 42 42 41 41 40 40 38 38 37 37 37 38 38 39 39 41 41 41 41 41 41 38 37 36 35 35 33 32 32 34 36 37 43 48 50 56 61 62 62 65 76 89 96 98 94 88
50 51 51 50 48 47 46 45 45 44 44 43 42 41 40 39 39 39 39 40 40 41 41 41 42 42 41 40 38 38 37 35 31 29 29 32 36 37 39 44 45 47 54 58 62 67 69 72 79 84 84 81
51 52 53 52 52 52 52 52 53 54 54 53 51 49 47 45 43 42 42 42 42 43 43 43 43 43 43 41 40 39 36 31 26 26 29 32 35 38 38 41 41 41 46 46 48 57 62 61 62 63 64 67
55 57 59 60 62 63 65 66 66 66 65 63 59 56 54 51 47 46 46 46 46 46 46 45 46 45 44 43 42 39 32 25 24 27 31 33 34 37 38 39 40 40 40 38 38 44 46 47 47 45 46 45
66 69 73 77 79 80 80 80 78 75 73 70 65 61 59 57 54 53 53 52 51 49 49 49 48 47 45 44 41 33 26 22 25 28 30 31 31 32 32 32 34 35 35 32 32 34 33 33 33 32 34 32
79 80 83 85 87 87 86 84 83 81 79 76 73 69 67 66 65 64 62 60 57 54 52 51 50 49 47 43 34 25 22 22 24 24 24 24 23 24 26 26 26 29 30 29 29 31 31 30 30 29 30 30